Time,TemperatureF,DewpointF,PressureIn,WindDirection,WindDirectionDegrees,WindSpeedMPH,WindSpeedGustMPH,Humidity,HourlyPrecipIn,Conditions,Clouds,dailyrainin,SoftwareType,DateUTC
2013-02-28 00:10:00,43.7,42.0,29.95,South,186,0.0,0.0,94,0.00,,,0.00,weatherlink.com 1.10,2013-02-28 06:10:00,
2013-02-28 00:25:00,43.3,42.0,29.95,South,186,0.0,0.0,95,0.00,,,0.00,weatherlink.com 1.10,2013-02-28 06:25:00,
2013-02-28 00:40:00,43.0,42.0,29.95,SSW,197,0.0,0.0,95,0.00,,,0.00,weatherlink.com 1.10,2013-02-28 06:40:00,
2013-02-28 00:55:00,42.9,42.0,29.95,SSW,197,0.0,0.0,95,0.00,,,0.00,weatherlink.com 1.10,2013-02-28 06:55:00,
2013-02-28 01:10:00,42.8,42.0,29.94,SSW,198,0.0,0.0,95,0.00,,,0.00,weatherlink.com 1.10,2013-02-28 07:10:00,
2013-02-28 01:25:00,42.5,42.0,29.95,SW,221,0.0,3.0,96,0.00,,,0.00,weatherlink.com 1.10,2013-02-28 07:25:00,
2013-02-28 01:40:00,42.1,41.0,29.94,SW,221,0.0,0.0,96,0.00,,,0.00,weatherlink.com 1.10,2013-02-28 07:40:00,
2013-02-28 01:56:00,41.9,41.0,29.94,SW,221,0.0,0.0,96,0.00,,,0.00,weatherlink.com 1.10,2013-02-28 07:56:00,
2013-02-28 02:11:00,41.3,40.0,29.95,SW,221,0.0,0.0,96,0.00,,,0.00,weatherlink.com 1.10,2013-02-28 08:11:00,
2013-02-28 02:26:00,40.8,40.0,29.94,SW,221,0.0,0.0,96,0.00,,,0.00,weatherlink.com 1.10,2013-02-28 08:26:00,
2013-02-28 02:41:00,40.6,40.0,29.94,NW,322,0.0,0.0,96,0.00,,,0.00,weatherlink.com 1.10,2013-02-28 08:41:00,
2013-02-28 02:56:00,39.9,39.0,29.94,NW,322,0.0,0.0,96,0.00,,,0.00,weatherlink.com 1.10,2013-02-28 08:56:00,
2013-02-28 03:11:00,39.5,39.0,29.94,NW,320,0.0,0.0,96,0.00,,,0.00,weatherlink.com 1.10,2013-02-28 09:11:00,
2013-02-28 03:26:00,39.1,38.0,29.95,NW,320,0.0,0.0,96,0.00,,,0.00,weatherlink.com 1.10,2013-02-28 09:26:00,
2013-02-28 03:41:00,39.1,38.0,29.95,NW,322,0.0,0.0,96,0.00,,,0.00,weatherlink.com 1.10,2013-02-28 09:41:00,
2013-02-28 03:56:00,39.2,38.0,29.95,NNE,21,0.0,1.0,96,0.00,,,0.00,weatherlink.com 1.10,2013-02-28 09:56:00,
2013-02-28 04:11:00,39.6,39.0,29.96,NNE,27,0.0,1.0,96,0.00,,,0.00,weatherlink.com 1.10,2013-02-28 10:11:00,
2013-02-28 04:26:00,39.6,39.0,29.96,West,266,0.0,2.0,96,0.00,,,0.00,weatherlink.com 1.10,2013-02-28 10:26:00,
2013-02-28 04:41:00,40.0,39.0,29.97,West,279,1.0,4.0,96,0.00,,,0.00,weatherlink.com 1.10,2013-02-28 10:41:00,
2013-02-28 04:56:00,40.6,39.0,29.97,NNW,342,0.0,4.0,95,0.00,,,0.00,weatherlink.com 1.10,2013-02-28 10:56:00,
2013-02-28 05:11:00,40.8,39.0,29.98,NNW,348,0.0,4.0,94,0.00,,,0.00,weatherlink.com 1.10,2013-02-28 11:11:00,
2013-02-28 05:26:00,40.7,39.0,29.98,North,10,0.0,4.0,94,0.00,,,0.00,weatherlink.com 1.10,2013-02-28 11:26:00,
2013-02-28 05:41:00,40.5,39.0,29.99,West,274,2.0,3.0,93,0.00,,,0.00,weatherlink.com 1.10,2013-02-28 11:41:00,
2013-02-28 05:56:00,40.3,39.0,29.99,North,1,0.0,2.0,93,0.00,,,0.00,weatherlink.com 1.10,2013-02-28 11:56:00,
2013-02-28 06:11:00,39.8,38.0,29.99,WNW,298,0.0,2.0,92,0.00,,,0.00,weatherlink.com 1.10,2013-02-28 12:11:00,
2013-02-28 06:26:00,38.8,37.0,29.99,WNW,297,0.0,0.0,94,0.00,,,0.00,weatherlink.com 1.10,2013-02-28 12:26:00,
2013-02-28 06:41:00,38.3,37.0,30.00,WNW,298,0.0,0.0,95,0.00,,,0.00,weatherlink.com 1.10,2013-02-28 12:41:00,
2013-02-28 06:56:00,38.7,37.0,30.01,WNW,297,0.0,0.0,95,0.00,,,0.00,weatherlink.com 1.10,2013-02-28 12:56:00,
2013-02-28 07:11:00,40.4,39.0,30.01,SSW,211,0.0,1.0,96,0.00,,,0.00,weatherlink.com 1.10,2013-02-28 13:11:00,
2013-02-28 07:26:00,44.2,41.0,30.02,WSW,255,0.0,1.0,89,0.00,,,0.00,weatherlink.com 1.10,2013-02-28 13:26:00,
2013-02-28 07:41:00,45.7,41.0,30.02,NW,319,0.0,5.0,82,0.00,,,0.00,weatherlink.com 1.10,2013-02-28 13:41:00,
2013-02-28 07:56:00,46.6,39.0,30.02,North,357,2.0,5.0,76,0.00,,,0.00,weatherlink.com 1.10,2013-02-28 13:56:00,
2013-02-28 08:11:00,47.6,38.0,30.02,WNW,298,5.0,7.0,70,0.00,,,0.00,weatherlink.com 1.10,2013-02-28 14:11:00,
2013-02-28 08:26:00,48.8,38.0,30.02,NW,309,1.0,6.0,66,0.00,,,0.00,weatherlink.com 1.10,2013-02-28 14:26:00,
2013-02-28 08:42:00,49.1,37.0,30.02,NNW,340,2.0,8.0,64,0.00,,,0.00,weatherlink.com 1.10,2013-02-28 14:42:00,
2013-02-28 08:57:00,50.1,38.0,30.02,SE,135,0.0,7.0,64,0.00,,,0.00,weatherlink.com 1.10,2013-02-28 14:57:00,
2013-02-28 09:12:00,51.2,38.0,30.01,NNE,16,4.0,7.0,62,0.00,,,0.00,weatherlink.com 1.10,2013-02-28 15:12:00,
2013-02-28 09:27:00,51.0,35.0,30.02,NNW,330,1.0,12.0,55,0.00,,,0.00,weatherlink.com 1.10,2013-02-28 15:27:00,
2013-02-28 09:42:00,52.0,36.0,30.02,West,279,0.0,8.0,54,0.00,,,0.00,weatherlink.com 1.10,2013-02-28 15:42:00,
2013-02-28 09:57:00,53.0,37.0,30.01,SW,232,7.0,7.0,55,0.00,,,0.00,weatherlink.com 1.10,2013-02-28 15:57:00,
2013-02-28 10:12:00,52.9,35.0,30.01,NW,315,4.0,9.0,52,0.00,,,0.00,weatherlink.com 1.10,2013-02-28 16:12:00,
2013-02-28 10:27:00,53.0,36.0,30.02,SSW,204,3.0,11.0,52,0.00,,,0.00,weatherlink.com 1.10,2013-02-28 16:27:00,
2013-02-28 10:42:00,54.8,35.0,30.01,SW,236,1.0,11.0,47,0.00,,,0.00,weatherlink.com 1.10,2013-02-28 16:42:00,
2013-02-28 10:57:00,55.0,35.0,30.01,NNW,343,6.0,10.0,48,0.00,,,0.00,weatherlink.com 1.10,2013-02-28 16:57:00,
2013-02-28 11:12:00,54.8,35.0,30.01,WSW,248,2.0,11.0,48,0.00,,,0.00,weatherlink.com 1.10,2013-02-28 17:12:00,
2013-02-28 11:27:00,55.8,35.0,30.00,WSW,247,4.0,12.0,46,0.00,,,0.00,weatherlink.com 1.10,2013-02-28 17:27:00,
2013-02-28 11:42:00,56.3,36.0,30.00,SSW,203,2.0,11.0,46,0.00,,,0.00,weatherlink.com 1.10,2013-02-28 17:42:00,
2013-02-28 11:57:00,56.8,35.0,30.00,NW,304,3.0,12.0,45,0.00,,,0.00,weatherlink.com 1.10,2013-02-28 17:57:00,
2013-02-28 12:12:00,57.7,36.0,29.98,SW,224,0.0,8.0,44,0.00,,,0.00,weatherlink.com 1.10,2013-02-28 18:12:00,
2013-02-28 12:27:00,57.4,35.0,29.98,ENE,60,5.0,9.0,43,0.00,,,0.00,weatherlink.com 1.10,2013-02-28 18:27:00,
2013-02-28 12:42:00,57.8,36.0,29.97,East,83,2.0,9.0,44,0.00,,,0.00,weatherlink.com 1.10,2013-02-28 18:42:00,
2013-02-28 12:57:00,57.5,35.0,29.96,NNW,341,2.0,8.0,43,0.00,,,0.00,weatherlink.com 1.10,2013-02-28 18:57:00,
2013-02-28 13:12:00,57.2,36.0,29.96,NNE,30,3.0,12.0,45,0.00,,,0.00,weatherlink.com 1.10,2013-02-28 19:12:00,
2013-02-28 13:27:00,56.9,36.0,29.96,West,280,3.0,11.0,45,0.00,,,0.00,weatherlink.com 1.10,2013-02-28 19:27:00,
2013-02-28 13:42:00,57.7,36.0,29.95,North,5,2.0,10.0,44,0.00,,,0.00,weatherlink.com 1.10,2013-02-28 19:42:00,
2013-02-28 13:57:00,57.0,35.0,29.96,NNE,33,2.0,8.0,44,0.00,,,0.00,weatherlink.com 1.10,2013-02-28 19:57:00,
2013-02-28 14:12:00,57.3,35.0,29.96,SW,228,6.0,8.0,44,0.00,,,0.00,weatherlink.com 1.10,2013-02-28 20:12:00,
2013-02-28 14:27:00,57.1,35.0,29.96,ENE,68,4.0,10.0,43,0.00,,,0.00,weatherlink.com 1.10,2013-02-28 20:27:00,
2013-02-28 14:42:00,56.2,33.0,29.96,WSW,249,2.0,9.0,42,0.00,,,0.00,weatherlink.com 1.10,2013-02-28 20:42:00,
2013-02-28 14:57:00,55.3,34.0,29.96,West,273,5.0,10.0,44,0.00,,,0.00,weatherlink.com 1.10,2013-02-28 20:57:00,
2013-02-28 15:12:00,55.1,33.0,29.96,NW,316,6.0,11.0,44,0.00,,,0.00,weatherlink.com 1.10,2013-02-28 21:12:00,
2013-02-28 15:27:00,54.6,34.0,29.96,WSW,246,1.0,7.0,46,0.00,,,0.00,weatherlink.com 1.10,2013-02-28 21:27:00,
2013-02-28 15:42:00,54.1,35.0,29.96,NNW,333,1.0,7.0,48,0.00,,,0.00,weatherlink.com 1.10,2013-02-28 21:42:00,
2013-02-28 15:57:00,53.8,33.0,29.96,WNW,290,1.0,6.0,46,0.00,,,0.00,weatherlink.com 1.10,2013-02-28 21:57:00,
2013-02-28 16:12:00,53.3,33.0,29.97,NW,304,5.0,8.0,46,0.00,,,0.00,weatherlink.com 1.10,2013-02-28 22:12:00,
2013-02-28 16:27:00,52.6,34.0,29.97,NNE,20,3.0,9.0,49,0.00,,,0.00,weatherlink.com 1.10,2013-02-28 22:27:00,
2013-02-28 16:42:00,52.2,35.0,29.97,WNW,300,4.0,6.0,52,0.00,,,0.00,weatherlink.com 1.10,2013-02-28 22:42:00,
2013-02-28 16:57:00,51.6,35.0,29.98,NNE,20,0.0,7.0,53,0.00,,,0.00,weatherlink.com 1.10,2013-02-28 22:57:00,
2013-02-28 17:12:00,51.2,35.0,29.98,WNW,297,2.0,4.0,54,0.00,,,0.00,weatherlink.com 1.10,2013-02-28 23:12:00,
2013-02-28 17:27:00,50.7,35.0,29.98,WNW,283,0.0,4.0,56,0.00,,,0.00,weatherlink.com 1.10,2013-02-28 23:27:00,
2013-02-28 17:41:00,50.1,36.0,29.98,NNE,15,0.0,3.0,58,0.00,,,0.00,weatherlink.com 1.10,2013-02-28 23:41:00,
2013-02-28 17:57:00,49.4,36.0,29.98,NW,326,0.0,2.0,61,0.00,,,0.00,weatherlink.com 1.10,2013-02-28 23:57:00,
2013-02-28 18:12:00,48.6,37.0,29.98,NW,326,0.0,0.0,65,0.00,,,0.00,weatherlink.com 1.10,2013-03-01 00:12:00,
2013-02-28 18:27:00,47.7,38.0,29.98,NW,326,0.0,0.0,69,0.00,,,0.00,weatherlink.com 1.10,2013-03-01 00:27:00,
2013-02-28 18:42:00,47.2,38.0,29.98,NNW,328,0.0,0.0,71,0.00,,,0.00,weatherlink.com 1.10,2013-03-01 00:42:00,
2013-02-28 18:57:00,46.9,39.0,29.98,North,4,0.0,0.0,73,0.00,,,0.00,weatherlink.com 1.10,2013-03-01 00:57:00,
2013-02-28 19:12:00,46.6,38.0,29.98,North,360,0.0,0.0,72,0.00,,,0.00,weatherlink.com 1.10,2013-03-01 01:12:00,
2013-02-28 19:27:00,46.2,38.0,29.98,North,360,0.0,0.0,73,0.00,,,0.00,weatherlink.com 1.10,2013-03-01 01:27:00,
2013-02-28 19:42:00,45.7,39.0,29.98,North,360,0.0,0.0,77,0.00,,,0.00,weatherlink.com 1.10,2013-03-01 01:42:00,
2013-02-28 19:57:00,45.4,39.0,30.00,North,5,0.0,0.0,79,0.00,,,0.00,weatherlink.com 1.10,2013-03-01 01:57:00,
2013-02-28 20:12:00,45.4,39.0,30.00,North,9,0.0,0.0,78,0.00,,,0.00,weatherlink.com 1.10,2013-03-01 02:12:00,
2013-02-28 20:27:00,46.1,38.0,30.01,NW,316,1.0,3.0,73,0.00,,,0.00,weatherlink.com 1.10,2013-03-01 02:27:00,
2013-02-28 20:42:00,46.4,39.0,30.00,NW,311,0.0,3.0,75,0.00,,,0.00,weatherlink.com 1.10,2013-03-01 02:42:00,
2013-02-28 20:57:00,45.8,39.0,30.00,NW,311,0.0,1.0,77,0.00,,,0.00,weatherlink.com 1.10,2013-03-01 02:57:00,
2013-02-28 21:12:00,45.0,39.0,30.01,NW,311,0.0,0.0,78,0.00,,,0.00,weatherlink.com 1.10,2013-03-01 03:12:00,
2013-02-28 21:27:00,44.0,38.0,30.01,NW,311,0.0,0.0,79,0.00,,,0.00,weatherlink.com 1.10,2013-03-01 03:27:00,
2013-02-28 21:42:00,43.5,37.0,30.02,NW,307,0.0,0.0,79,0.00,,,0.00,weatherlink.com 1.10,2013-03-01 03:42:00,
2013-02-28 21:57:00,43.9,38.0,30.02,WNW,293,1.0,6.0,80,0.00,,,0.00,weatherlink.com 1.10,2013-03-01 03:57:00,
2013-02-28 22:12:00,44.5,38.0,30.02,NE,44,0.0,3.0,77,0.00,,,0.00,weatherlink.com 1.10,2013-03-01 04:12:00,
2013-02-28 22:27:00,45.0,37.0,30.02,NNE,22,2.0,4.0,74,0.00,,,0.00,weatherlink.com 1.10,2013-03-01 04:27:00,
2013-02-28 22:42:00,44.8,36.0,30.02,NW,309,1.0,5.0,72,0.00,,,0.00,weatherlink.com 1.10,2013-03-01 04:42:00,
2013-02-28 22:57:00,44.7,36.0,30.03,NW,325,2.0,6.0,72,0.00,,,0.00,weatherlink.com 1.10,2013-03-01 04:57:00,
2013-02-28 23:12:00,44.4,36.0,30.03,North,6,4.0,4.0,72,0.00,,,0.00,weatherlink.com 1.10,2013-03-01 05:12:00,
2013-02-28 23:28:00,44.2,36.0,30.03,NNW,338,7.0,8.0,72,0.00,,,0.00,weatherlink.com 1.10,2013-03-01 05:28:00,
2013-02-28 23:43:00,44.0,35.0,30.04,NNE,16,7.0,8.0,72,0.00,,,0.00,weatherlink.com 1.10,2013-03-01 05:43:00,
2013-02-28 23:58:00,43.9,35.0,30.04,North,8,3.0,10.0,70,0.00,,,0.00,weatherlink.com 1.10,2013-03-01 05:58:00,